This is the latest recevied weather packets stored in our database for station/object KN4DS-3. If no packets are shown the sender has not sent any weather packets the latest 10 day(s).
| Time | Temp. | Humidity | Pressure | Rain* | Wind** | Luminosity | Snow |
|---|---|---|---|---|---|---|---|
| 1777779604 | 11.67° C | 66% | 1016.8 hPa | 0 mm | - | - | - |
| 1777779304 | 12.22° C | 64% | 1016.7 hPa | 0 mm | - | - | - |
| 1777779004 | 12.22° C | 63% | 1016.7 hPa | 0 mm | - | - | - |
| 1777778704 | 12.78° C | 61% | 1016.7 hPa | 0 mm | - | - | - |
| 1777778404 | 12.78° C | 60% | 1016.7 hPa | 0 mm | - | - | - |
| 1777778103 | 13.33° C | 58% | 1016.8 hPa | 0 mm | - | - | - |
| 1777777805 | 13.89° C | 57% | 1016.8 hPa | 0 mm | - | - | - |
| 1777777505 | 13.89° C | 56% | 1016.8 hPa | 0 mm | - | - | - |
| 1777777204 | 14.44° C | 53% | 1016.7 hPa | 0 mm | - | - | - |
| 1777776904 | 14.44° C | 51% | 1016.7 hPa | 0 mm | - | - | - |
| 1777776604 | 15° C | 51% | 1016.6 hPa | 0 mm | - | - | - |
| 1777776304 | 15° C | 50% | 1016.5 hPa | 0 mm | - | - | - |
| 1777776004 | 15° C | 49% | 1016.5 hPa | 0 mm | - | - | - |
| 1777775704 | 15.56° C | 48% | 1016.3 hPa | 0 mm | - | - | - |
| 1777775405 | 15.56° C | 47% | 1016.2 hPa | 0 mm | - | - | - |
| 1777775104 | 15.56° C | 47% | 1016.2 hPa | 0 mm | - | - | - |
| 1777774805 | 16.11° C | 47% | 1016.1 hPa | 0 mm | - | - | - |
| 1777774504 | 16.11° C | 45% | 1016.1 hPa | 0 mm | - | - | - |
| 1777774205 | 16.11° C | 45% | 1016 hPa | 0 mm | - | - | - |
| 1777773904 | 16.11° C | 46% | 1016 hPa | 0 mm | - | - | - |
| 1777773604 | 16.67° C | 46% | 1015.9 hPa | 0 mm | - | - | - |
| 1777773304 | 16.67° C | 46% | 1015.7 hPa | 0 mm | - | - | - |
| 1777773004 | 16.67° C | 46% | 1015.6 hPa | 0 mm | - | - | - |
| 1777772704 | 16.67° C | 46% | 1015.3 hPa | 0 mm | - | - | - |
| 1777772404 | 16.67° C | 46% | 1015.3 hPa | 0 mm | - | - | - |
* Rain latest hour (hover to see other rain measurements)
** Current wind speed in m/s (hover to see current wind gust speed)